Location: Lafig�re
(44.4503°N, 4.0357°E)
Time: 07:29:29
(UTC+00:00)

deb Explorer IX - Pass Details

Date: 24 January 2021
Orbit: 537 x 1103 km, 38.8° (Epoch: 23 February)

Event Time Altitude Azimuth Distance (km) Brightness Sun altitude
Rises 19:52:21 0° 263° (W) 3,521 ? -33.8°
Reaches altitude 10° 19:55:12 10° 258° (WSW) 2,483 ? -34.3°
Enters shadow 19:58:31 30° 238° (WSW) 1,390 ? -34.9°
